User: anonymous   Login
Location: Unspecified
(0.0000°N, 0.0000°E)
Time: 01:03:28
(UTC+00:00)
Language:

Falconsat - Orbit

View from above orbital plane
View from above orbital plane
View from above satellite
View from above satellite

Ground track
Ground track

The orbit data is extracted from the following two-line orbital elements,

1 26064U 00004D   17324.68742177 -.00000007  00000-0  17851-4 0  9995
2 26064 100.2240 353.0739 0037185 241.3893 118.3544 14.36141283933568
Epoch (UTC): 20 November 2017 16:29:53
Eccentricity: 0.0037185
inclination: 100.2240°
perigee height: 744 km
apogee height: 798 km
right ascension of ascending node: 353.0739°
argument of perigee: 241.3893°
revolutions per day: 14.36141283
mean anomaly at epoch: 118.3544°
orbit number at epoch: 93356

The dashed part of the orbit path shows where the satellite is in the earth's shadow,  

DLR